This demonstration page uses our WeatherBlox Daily Observations layout. Learn more.

Left ArrowRight Arrow

39.01783, -85.05884

Hourly Observations for September 5, 2021

Temp ( °F °C ) Dew Point ( °F °C ) Humidity (%) Winds ( mph kmh ) Pressure ( in mb ) Visibility ( mi km ) Precip ( " mm )
12:52 am 00:52 Cloudy with Light Rain 68 20 65 18.3 90 90 W 6 9 29.88 1012 8 13 0.06 1.52
1:52 am 01:52 Cloudy with Heavy Rain 68 20 65 18.3 90 90 WSW 9 15 29.87 1012 2 3 0.09 2.29
2:05 am 02:05 Cloudy with Heavy Rain 68 20 65 18.3 90 90 WSW 10 17 29.88 1012 2 3 0.10 2.54
2:14 am 02:14 Cloudy with Heavy Rain 68 20 65 18.3 90 90 SW 9 15 29.88 1012 2 3 0.17 4.32
2:21 am 02:21 Cloudy with Heavy Rain 68 20 65 18.3 90 90 WSW 10 17 29.88 1012 2 3 0.20 5.08
2:47 am 02:47 Cloudy with Rain 68 20 64 18 88 88 SW 8 13 29.87 1011 3 5 0.35 8.89
2:52 am 02:52 Cloudy with Rain 68 20 65 18.3 90 90 SW 8 13 29.85 1011 3 5 0.36 9.14
3:11 am 03:11 Cloudy with Rain 68 20 65 18.3 90 90 SSW 9 15 29.86 1011 3 5 0.04 1.02
3:27 am 03:27 Cloudy with Rain 67 19.4 65 18.3 93 93 SSW 10 17 29.85 1011 3 4 0.06 1.52
3:40 am 03:40 Cloudy with Light Rain 67 19.4 65 18.3 93 93 SSW 9 15 29.85 1011 4 6 0.07 1.78
3:48 am 03:48 Cloudy with Light Rain 66 19 64 18 94 94 SSW 7 11 29.84 1011 5 8 0.07 1.78
3:52 am 03:52 Cloudy with Mist and Fog 67 19.4 65 18.3 93 93 SSW 7 11 29.83 1010 6 10 0.07 1.78
4:20 am 04:20 Cloudy with Light Rain 68 20 65 18.3 90 90 SSW 8 13 29.83 1010 7 11 0.00 0.00
4:31 am 04:31 Cloudy with Light Rain 68 20 65 18.3 90 90 SW 8 13 29.83 1010 7 11 0.00 0.00
4:52 am 04:52 Cloudy with Light Rain 68 20 65 18.3 90 90 SW 9 15 29.82 1010 5 8 0.02 0.51
5:32 am 05:32 Cloudy with Mist and Fog 68 20 66 18.9 93 93 SSW 8 13 29.83 1010 2 3 0.01 0.25
5:52 am 05:52 Cloudy with Light Rain 68 20 65 18.3 90 90 SSW 8 13 29.82 1010 2 3 0.02 0.51
6:37 am 06:37 Cloudy with Light Rain 68 20 65 18.3 90 90 SSW 8 13 29.83 1010 2 3 0.01 0.25
6:52 am 06:52 Cloudy with Light Rain 68 20 65 18.3 90 90 SSW 7 11 29.82 1010 2 3 0.01 0.25
7:52 am 07:52 Cloudy with Light Rain 68 20 65 18.3 90 90 SW 8 13 29.84 1011 2 3 0.01 0.25
8:09 am 08:09 Cloudy with Light Rain 68 20 66 18.9 93 93 SW 6 9 29.85 1011 1 2 0.00 0.00
8:16 am 08:16 Cloudy with Light Rain 68 20 65 18.3 90 90 SW 7 11 29.85 1011 0 0 0.01 0.25
8:52 am 08:52 Cloudy with Light Rain 68 20 66 18.9 93 93 WSW 5 7 29.85 1011 0 0 0.04 1.02
9:02 am 09:02 Cloudy with Light Rain 68 20 66 18.9 93 93 W 6 9 29.86 1011 3 4 0.01 0.25
9:52 am 09:52 Cloudy with Mist and Fog 70 21.1 67 19.4 90 90 NNW 7 11 29.86 1011 3 5 0.01 0.25
10:52 am 10:52 Cloudy 73 22.8 67 19.4 81 81 NNW 8 13 29.87 1011 7 11 0.00 0.00
11:52 am 11:52 Cloudy 75 23.9 66 18.9 74 74 N 8 13 29.88 1012 10 16 0.00 0.00
12:52 pm 12:52 Mostly Cloudy 75 23.9 64 17.8 69 69 NNW 8 13 29.88 1012 10 16 0.00 0.00
1:52 pm 13:52 Mostly Cloudy 76 24.4 63 17.2 64 64 NNW 10 17 29.87 1012 10 16 0.00 0.00
2:52 pm 14:52 Mostly Cloudy 80 26.7 64 17.8 58 58 NW 13 20 29.86 1011 10 16 0.00 0.00
3:52 pm 15:52 Mostly Cloudy 80 26.7 64 17.8 58 58 NW 13 20 29.85 1011 10 16 0.00 0.00
4:52 pm 16:52 Mostly Cloudy 79 26.1 58 14.4 49 49 N 9 15 29.85 1011 10 16 0.00 0.00
5:52 pm 17:52 Partly Cloudy 79 26.1 54 12.2 42 42 NNW 12 19 29.86 1011 10 16 0.00 0.00
6:52 pm 18:52 Mostly Cloudy 77 25 54 12.2 45 45 NNW 10 17 29.87 1011 10 16 0.00 0.00
7:52 pm 19:52 Partly Cloudy 73 22.8 55 12.8 53 53 NW 7 11 29.88 1012 10 16 0.00 0.00
8:52 pm 20:52 Clear 70 21.1 55 12.8 59 59 NW 6 9 29.90 1012 10 16 0.00 0.00
9:52 pm 21:52 Clear 66 18.9 57 13.9 73 73 WNW 5 7 29.91 1013 10 16 0.00 0.00
10:52 pm 22:52 Clear 63 17.2 56 13.3 78 78 W 3 6 29.92 1013 10 16 0.00 0.00
11:52 pm 23:52 Clear 63 17.2 56 13.3 78 78 Calm 29.93 1014 10 16 0.00 0.00

Powered by AerisWeather